Weather in Tugiyany

Russia / Khanty-Mansi Autonomous Okrug — Yugra     63°33′25″N   65°48′31″E
temp.,
°C
wind,
m/s
gust,
m/s
humid.,
%
clouds,
%
prec.,
mm/h
press.,
hPa
HPBL,
m
7 may, fri
fri723:00+2w8157177 0.1 997837
02:00+1w8157489 0.0 999804
05:00+1wnw71487100 0.1 10011193
08:00+3wnw9145859 0.1 10031489
11:00+5nw10144985 0.1 10061597
14:00+8nw9144463 0.0 10081783
17:00+8nnw710445 0.0 10101431
20:00+5n58570 0.0 1012503
8 may, sat
sat823:00+1nne23720 0.0 101457
02:000n11762 0.0 101510
05:000nne22735 0.0 101779
08:00+4ene125017 0.0 1017349
11:00+7se2341100 0.0 1017437
14:00+13sse343956 0.0 1016812
17:00+16sse234594 0.0 1015940
20:00+11sw3685100 1.6 1016247
9 may, sun
sun923:00+8wnw512790 1.6 1018391
02:00+5nw379514 0.0 1020168
05:00+4n22950 0.0 102318
08:00+9nne23695 0.0 1024433
11:00+12ne23475 0.0 1024979
14:00+15e11355 0.0 10231337
17:00+17se2329100 0.0 10221539
20:00+14se334178 0.0 102254
10 may, mon
mon1023:00+10sse3555100 0.0 102370
02:00+9sse512635 0.0 1022253
05:00+8s5127016 0.0 1022276
08:00+14s610505 0.0 1021456
11:00+19ssw68372 0.0 1020976
14:00+21ssw69354 0.0 10182115
17:00+22ssw6933100 0.0 10162708
20:00+17sw3757100 0.4 1015254
11 may, tue
tue1123:00+11wnw6978100 0.0 1018618
02:00+4nnw71293100 6.0 1020685
05:00+5nw4108034 6.4 1021938
08:00+8nnw610565 0.0 10221227
11:00+11nnw57435 0.0 10221662
14:00+13nw35345 0.0 10221998
17:00+14wsw143043 0.0 10212159
20:00+13wsw354550 0.0 1020212